Location: G�migny
(47.9646°N, 1.6950°E)
Time: 11:12:35
(UTC+00:00)

STARLINK-71 - Pass Details

Date: 23 October 2019
Orbit: 548 x 551 km, 53.0° (Epoch: 20 November)

Event Time Altitude Azimuth Distance (km) Brightness Sun altitude
Rises 19:15:26 0° 296° (WNW) 2,723 8.4 -24.8°
Reaches altitude 10° 19:17:41 10° 298° (WNW) 1,828 7.2 -25.2°
Enters shadow 19:20:56 51° 318° (NW) 695 4.3 -25.7°
